AFR88NM EDDF-LFPG

Flight info

Callsign AFR88NM
Flight time 0h 51m
Altitude 24000
Route DF134 DCT DF138 DCT DF147 DCT DONAB DCT SOBRA DCT IDOSA DCT TOLVU/N0447F230 DCT VEDUS DCT XERAM DCT VEBEK DCT CTL DCT PG660 DCT FG27L
Aircraft A359/H-SDE2E3GHIJ3J4J5LM1ORWXY/LB1D1

Departure

Time 2026-05-08 18:48
Airport Frankfurt Main Airport (EDDF)

Arrival

Time 2026-05-08 19:40
Airport Charles de Gaulle International Airport (LFPG)
Time Latitude Longitude Altitude Speed Heading
2026-05-08 18:10 50.05151 8.59078 370 ft 0 kts 339°
2026-05-08 18:30 50.05146 8.59080 356 ft 4 kts 339°
2026-05-08 18:31 50.05120 8.59095 341 ft 4 kts 339°
2026-05-08 18:31 50.05099 8.59107 372 ft 3 kts 339°
2026-05-08 18:31 50.05077 8.59126 367 ft 4 kts 311°
2026-05-08 18:31 50.05068 8.59159 368 ft 4 kts 257°
2026-05-08 18:32 50.05076 8.59196 372 ft 4 kts 249°
2026-05-08 18:32 50.05079 8.59210 371 ft 0 kts 249°
2026-05-08 18:37 50.05079 8.59209 371 ft 1 kts 249°
2026-05-08 18:37 50.05057 8.59118 367 ft 12 kts 249°
2026-05-08 18:37 50.05023 8.58977 371 ft 16 kts 250°
2026-05-08 18:38 50.04984 8.58811 371 ft 9 kts 250°
2026-05-08 18:38 50.04958 8.58705 371 ft 12 kts 244°
2026-05-08 18:38 50.04916 8.58665 371 ft 6 kts 171°
2026-05-08 18:38 50.04877 8.58687 376 ft 6 kts 159°
2026-05-08 18:39 50.04831 8.58716 375 ft 10 kts 158°
2026-05-08 18:39 50.04759 8.58755 377 ft 11 kts 169°
2026-05-08 18:39 50.04704 8.58710 375 ft 9 kts 240°
2026-05-08 18:39 50.04677 8.58585 376 ft 17 kts 249°
2026-05-08 18:40 50.04635 8.58401 376 ft 20 kts 250°
2026-05-08 18:40 50.04585 8.58194 376 ft 23 kts 250°
2026-05-08 18:40 50.04525 8.57938 377 ft 26 kts 250°
2026-05-08 18:40 50.04481 8.57758 372 ft 6 kts 250°
2026-05-08 18:41 50.04462 8.57679 374 ft 10 kts 248°
2026-05-08 18:41 50.04435 8.57568 376 ft 13 kts 250°
2026-05-08 18:41 50.04394 8.57394 372 ft 20 kts 250°
2026-05-08 18:41 50.04338 8.57165 372 ft 23 kts 250°
2026-05-08 18:42 50.04299 8.57001 370 ft 12 kts 251°
2026-05-08 18:42 50.04292 8.56971 372 ft 0 kts 250°
2026-05-08 18:42 50.04283 8.56933 371 ft 9 kts 250°
2026-05-08 18:42 50.04249 8.56787 371 ft 19 kts 249°
2026-05-08 18:43 50.04192 8.56551 367 ft 25 kts 250°
2026-05-08 18:43 50.04131 8.56294 361 ft 25 kts 250°
2026-05-08 18:43 50.04074 8.56053 366 ft 24 kts 250°
2026-05-08 18:43 50.04013 8.55801 365 ft 27 kts 249°
2026-05-08 18:44 50.03947 8.55522 363 ft 27 kts 250°
2026-05-08 18:44 50.03878 8.55238 365 ft 29 kts 250°
2026-05-08 18:44 50.03810 8.54951 360 ft 25 kts 249°
2026-05-08 18:44 50.03747 8.54685 360 ft 27 kts 249°
2026-05-08 18:45 50.03676 8.54394 356 ft 30 kts 250°
2026-05-08 18:45 50.03613 8.54126 358 ft 27 kts 249°
2026-05-08 18:45 50.03558 8.53895 354 ft 20 kts 250°
2026-05-08 18:45 50.03506 8.53676 355 ft 23 kts 250°
2026-05-08 18:46 50.03449 8.53440 350 ft 24 kts 249°
2026-05-08 18:46 50.03394 8.53213 353 ft 22 kts 249°
2026-05-08 18:46 50.03343 8.52995 344 ft 20 kts 250°
2026-05-08 18:46 50.03303 8.52825 353 ft 17 kts 249°
2026-05-08 18:47 50.03265 8.52676 351 ft 11 kts 251°
2026-05-08 18:47 50.03222 8.52595 351 ft 11 kts 195°
2026-05-08 18:47 50.03193 8.52595 349 ft 0 kts 178°
2026-05-08 18:47 50.03192 8.52595 348 ft 2 kts 178°
2026-05-08 18:48 50.02936 8.52601 350 ft 78 kts 180°
2026-05-08 18:48 50.02136 8.52606 336 ft 149 kts 180°
2026-05-08 18:48 50.00920 8.52620 582 ft 189 kts 181°
2026-05-08 18:48 49.99606 8.52606 1484 ft 187 kts 181°
2026-05-08 18:49 49.98262 8.52580 2222 ft 203 kts 180°
2026-05-08 18:49 49.96771 8.52599 2621 ft 229 kts 178°
2026-05-08 18:49 49.95139 8.52727 3320 ft 239 kts 173°
2026-05-08 18:49 49.93501 8.52964 3884 ft 232 kts 173°
2026-05-08 18:50 49.91859 8.53149 4345 ft 244 kts 175°
2026-05-08 18:50 49.90139 8.53231 5268 ft 244 kts 179°
2026-05-08 18:50 49.88478 8.53336 6403 ft 239 kts 179°
2026-05-08 18:50 49.86840 8.53116 7376 ft 238 kts 195°
2026-05-08 18:51 49.85207 8.52271 7971 ft 257 kts 206°
2026-05-08 18:51 49.83729 8.50611 8724 ft 268 kts 229°
2026-05-08 18:51 49.82908 8.48023 9675 ft 272 kts 259°
2026-05-08 18:51 49.82601 8.45124 10500 ft 282 kts 253°
2026-05-08 18:52 49.81978 8.42109 10929 ft 306 kts 252°
2026-05-08 18:52 49.81538 8.38749 11315 ft 330 kts 264°
2026-05-08 18:52 49.81476 8.35107 11929 ft 345 kts 270°
2026-05-08 18:52 49.81524 8.31370 12753 ft 353 kts 270°
2026-05-08 18:53 49.81596 8.27528 13616 ft 359 kts 271°
2026-05-08 18:53 49.81674 8.23626 14414 ft 365 kts 271°
2026-05-08 18:53 49.81758 8.19674 15246 ft 368 kts 271°
2026-05-08 18:53 49.81842 8.15699 16103 ft 371 kts 271°
2026-05-08 18:54 49.81927 8.11725 16927 ft 374 kts 271°
2026-05-08 18:54 49.82012 8.07660 17766 ft 378 kts 271°
2026-05-08 18:54 49.82149 8.03573 18591 ft 382 kts 275°
2026-05-08 18:54 49.82623 7.99545 19349 ft 386 kts 282°
2026-05-08 18:55 49.83915 7.91346 20876 ft 395 kts 282°
2026-05-08 18:55 49.84568 7.87235 21633 ft 399 kts 282°
2026-05-08 18:55 49.85230 7.83029 22382 ft 403 kts 282°
2026-05-08 18:56 49.85811 7.78742 23116 ft 406 kts 277°
2026-05-08 18:56 49.85948 7.74356 23772 ft 409 kts 268°
2026-05-08 18:56 49.85837 7.70005 24044 ft 410 kts 265°
2026-05-08 18:56 49.85598 7.65500 24099 ft 427 kts 264°
2026-05-08 18:57 49.85293 7.60797 24094 ft 444 kts 263°
2026-05-08 18:57 49.85080 7.57629 24092 ft 447 kts 263°
2026-05-08 18:57 49.84665 7.51253 24092 ft 449 kts 263°
2026-05-08 18:57 49.84366 7.46425 24091 ft 449 kts 264°
2026-05-08 18:58 49.84079 7.41594 24089 ft 449 kts 264°
2026-05-08 18:58 49.83797 7.36753 24088 ft 449 kts 264°
2026-05-08 18:58 49.83522 7.31996 24089 ft 449 kts 264°
2026-05-08 18:58 49.83242 7.27173 24089 ft 449 kts 264°
2026-05-08 18:59 49.82961 7.22358 24085 ft 449 kts 264°
2026-05-08 18:59 49.82677 7.17521 24084 ft 449 kts 264°
2026-05-08 18:59 49.82393 7.12746 24083 ft 449 kts 264°
2026-05-08 18:59 49.82103 7.07915 24083 ft 449 kts 264°
2026-05-08 19:00 49.81812 7.03090 24084 ft 449 kts 264°
2026-05-08 19:00 49.81517 6.98253 24086 ft 449 kts 264°
2026-05-08 19:00 49.81224 6.93478 24085 ft 449 kts 264°
2026-05-08 19:00 49.80925 6.88649 24080 ft 449 kts 264°
2026-05-08 19:01 49.80625 6.83819 24078 ft 449 kts 264°
2026-05-08 19:01 49.80322 6.78993 24374 ft 449 kts 264°
2026-05-08 19:01 49.80020 6.74183 25181 ft 447 kts 264°
2026-05-08 19:01 49.79720 6.69445 26017 ft 444 kts 264°
2026-05-08 19:02 49.79418 6.64705 27034 ft 438 kts 264°
2026-05-08 19:02 49.79116 6.59998 27738 ft 441 kts 264°
2026-05-08 19:02 49.78810 6.55278 28041 ft 451 kts 264°
2026-05-08 19:02 49.78489 6.50349 28074 ft 467 kts 264°
2026-05-08 19:03 49.78157 6.45294 28071 ft 473 kts 264°
2026-05-08 19:03 49.77489 6.35204 28071 ft 473 kts 264°
2026-05-08 19:04 49.76808 6.25050 28074 ft 474 kts 264°
2026-05-08 19:04 49.76116 6.14946 28070 ft 474 kts 264°
2026-05-08 19:05 49.75418 6.04778 28073 ft 474 kts 264°
2026-05-08 19:05 49.74716 5.94677 28071 ft 475 kts 264°
2026-05-08 19:06 49.73535 5.84627 28072 ft 475 kts 254°
2026-05-08 19:06 49.71448 5.74949 28067 ft 478 kts 252°
2026-05-08 19:07 49.69177 5.65279 28067 ft 478 kts 251°
2026-05-08 19:07 49.66897 5.55666 28068 ft 478 kts 251°
2026-05-08 19:08 49.64624 5.46043 28063 ft 478 kts 251°
2026-05-08 19:08 49.62694 5.36289 28063 ft 476 kts 262°
2026-05-08 19:09 49.61927 5.26121 28072 ft 474 kts 267°
2026-05-08 19:09 49.61411 5.16066 28066 ft 471 kts 268°
2026-05-08 19:10 49.60908 5.05942 28065 ft 473 kts 268°
2026-05-08 19:10 49.60061 4.95907 28071 ft 474 kts 263°
2026-05-08 19:11 49.58941 4.85871 28067 ft 474 kts 263°
2026-05-08 19:11 49.58114 4.78623 28069 ft 474 kts 263°
2026-05-08 19:12 49.57011 4.69049 28075 ft 474 kts 263°
2026-05-08 19:12 49.55847 4.59039 28073 ft 474 kts 263°
2026-05-08 19:12 49.55268 4.54095 27899 ft 472 kts 263°
2026-05-08 19:13 49.54683 4.49112 27641 ft 471 kts 263°
2026-05-08 19:13 49.54095 4.44134 27346 ft 471 kts 263°
2026-05-08 19:13 49.53507 4.39164 27085 ft 469 kts 263°
2026-05-08 19:13 49.52927 4.34283 26828 ft 468 kts 263°
2026-05-08 19:14 49.52338 4.29348 26570 ft 467 kts 263°
2026-05-08 19:14 49.51750 4.24440 26053 ft 462 kts 263°
2026-05-08 19:14 49.51166 4.19588 25367 ft 458 kts 262°
2026-05-08 19:14 49.50592 4.14834 24661 ft 455 kts 262°
2026-05-08 19:15 49.50011 4.10036 23966 ft 453 kts 261°
2026-05-08 19:15 49.49432 4.05267 23191 ft 451 kts 261°
2026-05-08 19:15 49.48863 4.00593 22468 ft 446 kts 261°
2026-05-08 19:15 49.48584 3.95881 21662 ft 440 kts 269°
2026-05-08 19:16 49.48118 3.91244 20967 ft 436 kts 257°
2026-05-08 19:16 49.47427 3.86781 20296 ft 431 kts 257°
2026-05-08 19:16 49.46765 3.82303 19615 ft 426 kts 258°
2026-05-08 19:16 49.46150 3.77860 18936 ft 422 kts 258°
2026-05-08 19:17 49.45567 3.73458 18243 ft 417 kts 258°
2026-05-08 19:17 49.45001 3.69097 17507 ft 412 kts 258°
2026-05-08 19:17 49.44461 3.64881 17141 ft 399 kts 258°
2026-05-08 19:17 49.43937 3.60777 16711 ft 380 kts 258°
2026-05-08 19:18 49.43435 3.56835 16121 ft 373 kts 258°
2026-05-08 19:18 49.42935 3.52908 15978 ft 373 kts 258°
2026-05-08 19:18 49.42443 3.49049 15707 ft 371 kts 258°
2026-05-08 19:18 49.41875 3.45192 15123 ft 368 kts 253°
2026-05-08 19:19 49.40991 3.41515 14794 ft 364 kts 248°
2026-05-08 19:19 49.40040 3.37951 14577 ft 363 kts 247°
2026-05-08 19:19 49.39074 3.34364 14327 ft 362 kts 247°
2026-05-08 19:19 49.38109 3.30783 14096 ft 361 kts 247°
2026-05-08 19:20 49.37164 3.27271 13856 ft 359 kts 247°
2026-05-08 19:20 49.36839 3.26064 13771 ft 359 kts 247°
2026-05-08 19:20 49.35259 3.20194 13363 ft 356 kts 247°
2026-05-08 19:20 49.34323 3.16724 13144 ft 354 kts 247°
2026-05-08 19:21 49.33380 3.13231 12897 ft 353 kts 247°
2026-05-08 19:21 49.32439 3.09749 12662 ft 351 kts 247°
2026-05-08 19:21 49.31514 3.06333 12439 ft 350 kts 247°
2026-05-08 19:21 49.30580 3.02888 12198 ft 349 kts 247°
2026-05-08 19:22 49.29646 2.99450 11968 ft 348 kts 247°
2026-05-08 19:22 49.28726 2.96065 11737 ft 346 kts 247°
2026-05-08 19:22 49.27807 2.92693 11542 ft 336 kts 247°
2026-05-08 19:22 49.26925 2.89457 11313 ft 322 kts 247°
2026-05-08 19:23 49.26079 2.86358 11117 ft 309 kts 247°
2026-05-08 19:23 49.25273 2.83411 11050 ft 291 kts 247°
2026-05-08 19:23 49.24504 2.80605 11058 ft 282 kts 247°
2026-05-08 19:23 49.23754 2.77868 11058 ft 281 kts 247°
2026-05-08 19:24 49.22997 2.75108 11069 ft 281 kts 247°
2026-05-08 19:24 49.22238 2.72346 11063 ft 281 kts 247°
2026-05-08 19:24 49.21479 2.69585 11054 ft 281 kts 247°
2026-05-08 19:24 49.20720 2.66829 11051 ft 281 kts 247°
2026-05-08 19:25 49.19959 2.64067 11053 ft 282 kts 247°
2026-05-08 19:25 49.19196 2.61305 11049 ft 283 kts 247°
2026-05-08 19:25 49.18448 2.58519 11054 ft 284 kts 250°
2026-05-08 19:25 49.18061 2.55606 11052 ft 284 kts 265°
2026-05-08 19:26 49.17964 2.52621 10887 ft 278 kts 268°
2026-05-08 19:26 49.17912 2.49640 10331 ft 283 kts 268°
2026-05-08 19:26 49.17859 2.46633 9841 ft 284 kts 268°
2026-05-08 19:26 49.17821 2.44633 9508 ft 282 kts 268°
2026-05-08 19:27 49.17762 2.41655 8772 ft 279 kts 267°
2026-05-08 19:27 49.17698 2.38690 8041 ft 279 kts 267°
2026-05-08 19:27 49.17636 2.35755 7784 ft 273 kts 268°
2026-05-08 19:27 49.17591 2.32854 7683 ft 273 kts 267°
2026-05-08 19:28 49.17548 2.29944 7567 ft 274 kts 268°
2026-05-08 19:28 49.17506 2.27038 7345 ft 274 kts 267°
2026-05-08 19:28 49.17462 2.24130 7112 ft 273 kts 268°
2026-05-08 19:28 49.17416 2.21221 7052 ft 275 kts 268°
2026-05-08 19:29 49.17369 2.18296 7048 ft 275 kts 268°
2026-05-08 19:29 49.17321 2.15380 7046 ft 274 kts 267°
2026-05-08 19:29 49.17271 2.12464 7046 ft 274 kts 268°
2026-05-08 19:29 49.17201 2.09547 7045 ft 274 kts 264°
2026-05-08 19:30 49.16618 2.06812 7043 ft 272 kts 237°
2026-05-08 19:30 49.15398 2.04630 7047 ft 271 kts 223°
2026-05-08 19:30 49.14016 2.02669 7049 ft 271 kts 222°
2026-05-08 19:30 49.12612 2.00734 7049 ft 272 kts 221°
2026-05-08 19:31 49.11222 1.98824 7046 ft 272 kts 221°
2026-05-08 19:31 49.09816 1.96892 7047 ft 271 kts 221°
2026-05-08 19:31 49.08413 1.94962 7046 ft 271 kts 221°
2026-05-08 19:31 49.07008 1.93031 7047 ft 271 kts 221°
2026-05-08 19:32 49.05601 1.91103 7047 ft 271 kts 221°
2026-05-08 19:32 49.04119 1.89333 7048 ft 272 kts 208°
2026-05-08 19:32 49.02310 1.88592 7053 ft 271 kts 182°
2026-05-08 19:32 49.00492 1.89148 6861 ft 272 kts 156°
2026-05-08 19:33 48.98906 1.90708 6628 ft 271 kts 143°
2026-05-08 19:33 48.97660 1.92843 6425 ft 272 kts 120°
2026-05-08 19:33 48.96917 1.95492 6290 ft 272 kts 109°
2026-05-08 19:33 48.96447 1.98279 6158 ft 272 kts 101°
2026-05-08 19:34 48.96314 2.01156 6037 ft 272 kts 90°
2026-05-08 19:34 48.96426 2.04021 5855 ft 271 kts 86°
2026-05-08 19:34 48.96577 2.06870 5605 ft 269 kts 86°
2026-05-08 19:34 48.96732 2.09694 5348 ft 267 kts 85°
2026-05-08 19:35 48.96891 2.12494 5086 ft 265 kts 85°
2026-05-08 19:35 48.97057 2.15277 4844 ft 263 kts 85°
2026-05-08 19:35 48.97222 2.18012 4597 ft 262 kts 85°
2026-05-08 19:35 48.97383 2.20760 4337 ft 260 kts 85°
2026-05-08 19:36 48.97537 2.23498 4088 ft 259 kts 85°
2026-05-08 19:36 48.97681 2.26224 4004 ft 258 kts 85°
2026-05-08 19:36 48.97819 2.28955 3901 ft 258 kts 86°
2026-05-08 19:36 48.97954 2.31674 3610 ft 257 kts 85°
2026-05-08 19:37 48.98101 2.34372 3240 ft 253 kts 85°
2026-05-08 19:37 48.98246 2.37027 2875 ft 250 kts 85°
2026-05-08 19:37 48.98383 2.39615 2539 ft 239 kts 85°
2026-05-08 19:37 48.98513 2.42027 2225 ft 219 kts 84°
2026-05-08 19:38 48.98631 2.44244 1947 ft 202 kts 85°
2026-05-08 19:38 48.98740 2.46281 1697 ft 185 kts 85°
2026-05-08 19:38 48.98841 2.48164 1457 ft 172 kts 85°
2026-05-08 19:38 48.98933 2.49893 1249 ft 156 kts 84°
2026-05-08 19:39 48.99014 2.51458 1045 ft 143 kts 85°
2026-05-08 19:39 48.99095 2.52911 848 ft 133 kts 83°
2026-05-08 19:39 48.99173 2.54285 674 ft 127 kts 83°
2026-05-08 19:39 48.99241 2.55614 520 ft 126 kts 84°
2026-05-08 19:40 48.99310 2.56954 374 ft 127 kts 83°
2026-05-08 19:40 48.99376 2.58208 362 ft 110 kts 84°
2026-05-08 19:40 48.99417 2.58945 363 ft 41 kts 85°
2026-05-08 19:40 48.99486 2.59310 363 ft 24 kts 61°
2026-05-08 19:41 48.99537 2.59481 366 ft 18 kts 65°
2026-05-08 19:41 48.99592 2.59653 369 ft 17 kts 56°
2026-05-08 19:41 48.99694 2.59685 365 ft 17 kts 354°
2026-05-08 19:41 48.99816 2.59673 364 ft 17 kts 355°
2026-05-08 19:42 48.99926 2.59657 367 ft 15 kts 355°
2026-05-08 19:42 48.99982 2.59651 363 ft 0 kts 356°
2026-05-08 19:42 48.99986 2.59650 364 ft 2 kts 356°
2026-05-08 19:42 49.00014 2.59647 368 ft 7 kts 356°
2026-05-08 19:43 49.00075 2.59641 365 ft 11 kts 356°
2026-05-08 19:43 49.00093 2.59639 363 ft 0 kts 356°
2026-05-08 19:45 49.00107 2.59637 365 ft 4 kts 356°
2026-05-08 19:46 49.00153 2.59630 367 ft 9 kts 355°
2026-05-08 19:46 49.00231 2.59622 361 ft 13 kts 356°
2026-05-08 19:46 49.00468 2.59592 365 ft 21 kts 355°
2026-05-08 19:47 49.00613 2.59573 368 ft 19 kts 354°
2026-05-08 19:47 49.00754 2.59557 361 ft 22 kts 355°
2026-05-08 19:47 49.00866 2.59542 361 ft 12 kts 355°
2026-05-08 19:47 49.00958 2.59531 363 ft 13 kts 350°
2026-05-08 19:48 49.01002 2.59430 365 ft 13 kts 266°
2026-05-08 19:48 49.00993 2.59267 366 ft 17 kts 266°
2026-05-08 19:48 49.00977 2.59063 362 ft 21 kts 258°
2026-05-08 19:48 49.00946 2.58834 365 ft 24 kts 264°
2026-05-08 19:49 49.00933 2.58586 363 ft 24 kts 266°
2026-05-08 19:49 49.00923 2.58401 367 ft 12 kts 266°
2026-05-08 19:49 49.00904 2.58278 366 ft 8 kts 234°
2026-05-08 19:49 49.00856 2.58249 368 ft 9 kts 186°
2026-05-08 19:50 49.00820 2.58242 367 ft 0 kts 187°
2026-05-08 19:50 49.00809 2.58239 365 ft 3 kts 188°
2026-05-08 19:50 49.00801 2.58238 363 ft 0 kts 188°
2026-05-08 19:51 49.00769 2.58232 361 ft 12 kts 186°
2026-05-08 19:51 49.00738 2.58253 368 ft 3 kts 107°
2026-05-08 19:51 49.00741 2.58311 366 ft 6 kts 87°
2026-05-08 19:51 49.00742 2.58338 367 ft 2 kts 86°
2026-05-08 19:52 49.00742 2.58351 365 ft 0 kts 85°
2026-05-08 19:52 49.00742 2.58353 365 ft 0 kts 86°